Weather History for KIJD - October, 2011

Change the Weather History Date:

Saturday, October 29, 2011

  Actual Average Record
Temperature  
Mean Temperature 37 °F -  
Max Temperature 41 °F 59 °F 79 °F (1989)
Min Temperature 33 °F 31 °F 18 °F (1976)
Degree Days  
Heating Degree Days 28    
Moisture  
Dew Point 32 °F    
Average Humidity 88    
Maximum Humidity 96    
Minimum Humidity 58    
Precipitation  
Precipitation 0.68 in - - ()
Sea Level Pressure  
Sea Level Pressure 29.97 in    
Wind  
Wind Speed 8 mph (NNE)    
Max Wind Speed 20 mph    
Max Gust Speed 29 mph    
Visibility 4 miles    
Events Fog , Rain , Snow    
Averages and records for this station are not official NWS values.
T = Trace of Precipitation, MM = Missing Value Source: NWS Daily Summary

Daily Weather History Graph

Daily Weather History Graph

Search for Another Location

Airport or City:

Trip Planner

Search our weather history database for the weather conditions in past years. The results will help you decide how hot, cold, wet, or windy it might be!

Date:

Astronomy

Oct. 29, 2011 Rise Set
Actual Time 7:16 AM EDT 5:47 PM EDT
Civil Twilight 6:48 AM EDT 6:16 PM EDT
Nautical Twilight 6:15 AM EDT 6:48 PM EDT
Astronomical Twilight 5:43 AM EDT 7:21 PM EDT
Moon 10:38 AM EDT (10/29) 8:05 PM EDT (10/29)
Length of Visible Light 11h 27m
Length of Day
10h 30m
Waxing Crescent, 11% of the Moon is Illuminated
Oct 29
Waxing Crescent
Nov 2
First Quarter
Nov 10
Full
Nov 18
Last Quarter
Nov 25
New

Hourly Weather History & Observations

Time (EDT) Temp. Windchill Dew Point Humidity Pressure Visibility Wind Dir Wind Speed Gust Speed Precip Events Conditions
12:52 AM 35.1 °F - 33.1 °F 92% 30.27 in 10.0 mi Calm Calm - N/A   Clear
2:52 AM 35.1 °F - 33.1 °F 92% 30.25 in 10.0 mi Calm Calm - N/A   Clear
3:52 AM 35.1 °F - 32.0 °F 89% 30.24 in 10.0 mi Calm Calm - N/A   Clear
4:52 AM 35.1 °F 32.2 °F 32.0 °F 89% 30.25 in 10.0 mi North 3.5 mph - N/A   Scattered Clouds
6:52 AM 35.1 °F 32.2 °F 30.9 °F 85% 30.23 in 10.0 mi North 3.5 mph - N/A   Scattered Clouds
7:52 AM 36.0 °F 33.3 °F 30.0 °F 79% 30.22 in 10.0 mi North 3.5 mph - N/A   Mostly Cloudy
8:52 AM 39.0 °F 34.8 °F 27.0 °F 62% 30.22 in 10.0 mi NE 5.8 mph - N/A   Overcast
9:52 AM 39.9 °F 34.5 °F 26.1 °F 58% 30.20 in 10.0 mi NE 8.1 mph - N/A   Overcast
10:52 AM 39.9 °F 32.9 °F 26.1 °F 58% 30.15 in 10.0 mi NNE 11.5 mph - N/A   Overcast
11:52 AM 41.0 °F 34.7 °F 28.0 °F 60% 30.12 in 10.0 mi NE 10.4 mph - N/A   Overcast
12:52 PM 37.0 °F 31.0 °F 32.0 °F 82% 30.11 in 3.0 mi NE 8.1 mph - 0.03 in Rain Rain
1:04 PM 35.6 °F 28.6 °F 33.8 °F 93% 30.08 in 3.0 mi NE 9.2 mph - 0.02 in Snow Light Snow
1:09 PM 35.6 °F 28.6 °F 33.8 °F 93% 30.07 in 1.8 mi NE 9.2 mph - 0.04 in Snow Light Snow
1:47 PM 33.8 °F 28.6 °F 32.0 °F 93% 30.04 in 0.5 mi NNE 5.8 mph - 0.13 in Fog , Snow Snow
1:52 PM 33.1 °F 28.7 °F 32.0 °F 96% 30.04 in 0.8 mi North 4.6 mph - 0.13 in Snow Light Snow
2:01 PM 33.8 °F 27.7 °F 32.0 °F 93% 30.01 in 1.2 mi NNE 6.9 mph - 0.01 in Snow Light Snow
2:49 PM 33.8 °F 25.8 °F 32.0 °F 93% 29.97 in 0.8 mi NNE 10.4 mph - 0.09 in Snow Light Snow
2:52 PM 34.0 °F 25.0 °F 32.0 °F 92% 29.98 in 0.8 mi NNE 12.7 mph 17.3 mph 0.09 in Snow Light Snow
3:52 PM 34.0 °F 25.5 °F 32.0 °F 92% 29.94 in 1.0 mi NNE 11.5 mph - 0.12 in Snow Light Snow
4:13 PM 33.8 °F 25.8 °F 32.0 °F 93% 29.94 in 0.5 mi NNE 10.4 mph - 0.04 in Fog , Snow Snow
4:52 PM 34.0 °F 26.6 °F 32.0 °F 92% 29.94 in 1.0 mi NNE 9.2 mph 18.4 mph 0.10 in Snow Light Snow
5:22 PM 35.6 °F 28.0 °F 33.8 °F 93% 29.91 in 2.0 mi NNE 10.4 mph - 0.02 in Snow Light Snow
5:29 PM 35.6 °F 25.9 °F 33.8 °F 93% 29.92 in 3.0 mi NNE 16.1 mph 21.9 mph 0.03 in Snow Light Snow
5:44 PM 35.6 °F 25.5 °F 33.8 °F 93% 29.90 in 4.0 mi NNE 17.3 mph 23.0 mph 0.03 in Snow Light Snow
5:52 PM 35.1 °F 25.9 °F 33.1 °F 92% 29.91 in 3.0 mi NNE 13.8 mph 23.0 mph 0.04 in Snow Light Snow
6:17 PM 35.6 °F 26.2 °F 32.0 °F 87% 29.88 in 3.0 mi NNE 15.0 mph 27.6 mph 0.01 in Snow Light Snow
6:25 PM 35.6 °F 25.2 °F 32.0 °F 87% 29.88 in 3.0 mi NNE 18.4 mph 24.2 mph 0.01 in Snow Light Snow
6:41 PM 35.6 °F 24.8 °F 33.8 °F 93% 29.89 in 4.0 mi NNE 19.6 mph 28.8 mph 0.02 in Rain Light Rain
6:52 PM 35.1 °F 25.2 °F 32.0 °F 89% 29.88 in 3.0 mi NNE 16.1 mph 28.8 mph 0.02 in Snow Light Snow
8:06 PM 35.6 °F 25.5 °F 32.0 °F 87% 29.82 in 2.5 mi NNE 17.3 mph 28.8 mph 0.01 in Snow Light Snow
8:17 PM 35.6 °F 25.5 °F 32.0 °F 87% 29.82 in 3.0 mi NNE 17.3 mph 25.3 mph 0.02 in Snow Light Snow
8:32 PM 33.8 °F 23.9 °F 32.0 °F 93% 29.81 in 3.0 mi NNE 15.0 mph 23.0 mph 0.02 in Snow Light Snow
8:39 PM 33.8 °F 23.2 °F 32.0 °F 93% 29.80 in 2.5 mi North 17.3 mph 23.0 mph 0.02 in Snow Light Snow
8:52 PM 34.0 °F 23.0 °F 32.0 °F 92% 29.79 in 2.0 mi NNE 18.4 mph 26.5 mph 0.03 in Snow Light Snow
9:52 PM 34.0 °F 24.2 °F 32.0 °F 92% 29.83 in 2.5 mi North 15.0 mph 20.7 mph 0.07 in Snow Light Snow
10:03 PM 33.8 °F 24.8 °F 32.0 °F 93% 29.82 in 1.8 mi North 12.7 mph 23.0 mph 0.01 in Snow Light Snow
10:28 PM 33.8 °F 23.5 °F 32.0 °F 93% 29.80 in 2.0 mi North 16.1 mph 20.7 mph 0.02 in Snow Light Snow
10:34 PM 33.8 °F 24.3 °F 32.0 °F 93% 29.80 in 1.8 mi North 13.8 mph 21.9 mph 0.02 in Snow Light Snow
10:49 PM 33.8 °F 24.3 °F 32.0 °F 93% 29.82 in 1.8 mi North 13.8 mph 19.6 mph 0.02 in Snow Light Snow
10:52 PM 34.0 °F 26.0 °F 32.0 °F 92% 29.82 in 1.8 mi North 10.4 mph 19.6 mph 0.02 in Snow Light Snow
11:32 PM 33.8 °F 24.8 °F 32.0 °F 93% 29.83 in 1.0 mi NNW 12.7 mph - 0.02 in Snow Light Snow
11:40 PM 33.8 °F 23.9 °F 32.0 °F 93% 29.82 in 1.0 mi North 15.0 mph 18.4 mph 0.03 in Snow Light Snow
11:48 PM 33.8 °F 25.3 °F 32.0 °F 93% 29.81 in 0.8 mi North 11.5 mph - 0.03 in Snow Light Snow
11:52 PM 33.1 °F 23.0 °F 30.9 °F 92% 29.81 in 0.8 mi North 15.0 mph 20.7 mph 0.03 in Snow Light Snow